Theta_e
294 289 286 288 290 291 289 287 287 290 291 286 283 281 281 282 281 279 278 278 278 279 281 282 282 282 282 282 283 282 283 283 284 286 287 292 295 299 297 298 299 298 307 308
290 286 292 294 294 292 290 286 287 290 290 285 281 278 280 280 279 279 278 277 277 278 279 280 280 280 280 281 282 282 282 282 282 284 286 289 292 296 294 292 294 295 295 295
287 291 295 294 292 290 288 286 287 288 285 284 280 276 276 279 279 279 278 278 277 276 276 277 277 277 278 278 279 281 282 282 282 283 284 286 288 289 287 287 288 291 291 291
289 294 293 291 290 290 286 292 292 288 285 280 284 273 275 276 275 275 275 275 275 275 276 277 276 276 276 277 278 279 280 280 282 282 281 281 281 281 283 284 286 287 288 289
289 290 290 290 291 292 289 293 291 290 286 284 282 277 274 276 272 272 273 274 274 275 275 275 275 276 276 276 276 277 277 278 279 281 281 280 279 280 282 282 282 284 285 286
291 295 293 292 294 293 294 291 291 288 286 279 284 282 273 274 273 272 273 273 274 274 274 274 275 275 274 274 274 275 276 276 276 278 279 279 279 279 279 279 279 281 282 283
289 290 292 295 290 293 292 287 280 279 278 278 285 282 271 273 274 273 272 272 272 273 272 272 271 272 272 272 272 274 273 273 274 274 276 276 276 278 278 278 278 278 279 280
282 281 289 293 291 288 288 288 281 277 277 278 282 273 270 274 275 274 274 273 272 271 272 271 271 271 271 271 271 271 272 271 272 272 273 274 275 275 275 276 276 277 278 279
283 284 289 291 291 291 288 285 289 283 282 278 270 269 273 274 273 273 272 271 270 270 270 270 270 270 269 269 270 270 270 270 271 271 271 272 273 273 272 273 273 274 274 276
285 282 287 289 291 290 288 290 284 283 277 276 272 267 270 270 270 271 270 269 269 269 269 268 269 269 269 269 268 269 269 269 269 270 270 270 271 272 272 271 271 271 272 274
284 284 281 287 280 281 285 285 286 286 284 278 272 270 273 273 272 269 269 269 268 267 267 267 267 268 268 268 267 267 267 268 268 268 269 268 268 270 270 269 269 270 271 272
282 280 274 277 282 283 280 279 281 280 279 278 277 266 271 270 271 270 269 269 268 268 267 266 266 266 266 265 266 265 266 266 266 267 267 267 267 268 267 267 267 269 269 270
281 276 270 274 277 280 276 277 278 279 278 273 272 265 270 269 268 268 266 266 267 267 266 264 263 262 262 262 262 263 263 263 265 266 265 265 265 265 265 266 266 268 268 268
285 278 272 272 274 277 274 274 275 273 269 269 264 263 263 263 264 264 263 262 260 261 262 260 259 257 256 255 256 258 259 259 261 262 262 261 262 262 263 263 264 265 265 265
282 274 274 274 275 274 271 271 272 269 264 266 262 260 262 259 259 257 257 260 260 258 258 256 255 255 254 255 256 256 255 257 255 257 258 259 260 260 260 261 261 262 261 263
279 272 274 271 274 272 267 268 270 269 266 264 263 260 261 258 257 258 256 259 258 256 257 258 256 254 254 254 256 259 258 258 256 258 258 259 259 259 259 260 260 260 261 262
276 274 271 266 272 271 264 260 267 265 264 264 264 260 261 260 263 258 257 257 257 256 255 256 256 257 257 258 260 258 258 258 258 258 260 260 261 260 261 261 261 261 260 261
275 274 270 264 270 260 260 265 265 263 262 262 262 261 259 258 257 257 254 254 253 254 256 258 257 257 257 255 257 257 258 259 259 260 260 262 262 262 263 263 263 262 263 262
277 273 266 264 261 260 260 262 263 262 260 258 259 258 257 256 254 257 255 253 254 254 255 255 256 256 256 257 258 257 258 258 257 259 260 261 262 262 263 263 263 263 263 263
276 276 270 264 260 260 260 261 260 258 260 258 259 256 255 254 254 256 253 254 255 256 256 258 259 257 254 258 257 255 258 258 258 261 262 263 263 263 262 262 262 263 263 264
269 267 263 265 257 257 258 258 258 259 261 259 259 256 254 255 256 253 252 255 255 256 258 258 258 257 258 259 258 259 260 260 263 264 264 264 264 263 263 263 263 263 263 264
263 263 262 262 258 259 260 258 260 257 251 253 251 251 253 253 253 253 257 258 259 259 260 260 259 260 260 261 261 261 261 263 263 263 263 263 263 263 264 263 263 263 262 261
260 259 261 258 258 256 253 256 251 250 254 251 252 250 252 251 254 256 257 257 258 260 261 263 261 261 262 262 262 261 262 262 263 262 262 262 262 263 264 263 262 262 261 260
258 256 258 257 256 254 251 250 249 248 250 249 250 250 252 253 254 256 257 259 260 261 261 261 260 260 260 262 263 262 262 263 262 261 261 262 261 262 262 263 263 262 260 260
257 259 256 253 254 251 250 248 249 249 248 249 249 253 256 256 257 258 259 260 260 261 262 262 261 261 262 262 261 262 263 262 261 261 261 261 262 261 261 262 261 261 262 263
255 257 257 257 252 253 251 248 248 251 252 253 255 256 258 259 259 260 259 260 260 260 261 261 262 262 262 262 262 262 262 262 261 260 261 261 261 261 261 260 260 266 268 269
Wind_Speed
3 4 9 10 8 6 3 4 7 6 15 15 19 17 13 13 13 12 10 10 11 13 13 14 15 15 16 17 19 20 20 21 16 14 11 6 8 9 10 11 16 18 15 10
3 7 8 9 7 8 6 1 6 15 13 18 16 15 11 10 11 11 10 10 11 11 12 13 15 16 17 16 17 19 19 19 16 11 10 5 6 7 8 11 14 18 17 17
8 6 14 8 7 7 5 8 7 12 13 15 19 8 9 9 13 13 12 11 12 12 12 13 14 15 15 16 17 17 18 18 17 17 10 9 7 6 8 14 12 14 16 16
5 6 9 5 6 6 4 7 7 17 6 6 12 5 5 11 11 10 10 10 10 11 12 12 13 15 16 15 15 16 17 18 16 18 15 18 11 10 9 9 9 11 15 16
8 7 7 5 6 7 7 1 8 12 6 6 8 6 5 12 8 9 8 10 10 11 12 12 13 13 14 14 13 14 15 17 17 17 16 12 13 9 8 9 13 14 13 15
3 1 3 5 3 5 6 5 7 5 4 2 8 9 8 7 11 10 10 10 10 10 10 11 11 11 12 13 13 13 15 16 16 16 17 17 15 13 11 13 11 11 10 11
2 2 1 2 5 5 4 7 3 1 1 6 7 8 5 9 11 14 12 10 9 8 9 10 11 11 12 14 14 13 15 15 16 16 15 15 15 15 14 13 10 13 10 11
7 3 6 3 3 7 6 7 7 8 6 5 6 5 6 11 13 14 12 11 10 9 9 10 11 11 12 14 14 13 14 14 15 15 14 13 13 9 9 11 10 9 9 10
6 3 1 4 2 3 5 8 4 3 2 4 6 5 5 12 13 12 11 11 9 8 9 10 10 10 11 11 12 13 13 13 13 13 12 12 11 12 11 11 10 8 10 11
2 5 1 0 3 2 2 2 3 1 4 5 2 6 6 15 14 12 10 9 8 8 9 9 9 10 10 10 10 11 12 12 12 12 10 10 11 10 10 10 11 11 11 12
1 4 2 3 6 1 2 2 0 2 3 4 5 3 4 13 14 13 10 9 7 7 6 6 6 6 7 8 9 10 11 11 11 11 10 10 10 10 8 9 10 10 11 11
1 5 4 1 0 3 3 2 2 4 4 1 3 3 4 12 12 12 10 9 7 6 6 5 5 6 6 6 7 7 8 9 9 10 9 9 9 9 8 9 10 9 10 10
0 2 4 1 1 2 5 3 2 2 3 2 5 4 5 10 11 9 8 5 4 5 5 4 5 5 5 5 5 6 6 7 7 8 8 8 9 8 8 9 9 9 9 9
1 4 3 7 3 4 5 5 3 4 4 2 2 10 5 5 8 4 3 2 3 4 4 3 4 5 5 4 5 6 6 6 6 6 7 7 8 8 7 8 9 9 9 9
4 5 4 7 9 10 7 7 7 5 0 4 6 7 9 6 6 4 2 1 4 2 3 4 5 5 5 6 6 5 5 6 4 6 6 7 7 6 6 7 7 7 6 7
2 6 4 6 7 8 8 9 11 9 5 8 6 3 3 2 3 3 2 2 2 2 4 6 5 5 5 6 6 6 6 6 4 6 7 7 6 6 6 7 7 7 7 8
3 6 3 2 7 6 4 3 3 5 5 2 4 5 6 3 4 2 2 3 4 3 5 6 7 7 7 7 6 7 6 4 5 5 7 6 6 6 6 6 6 6 6 6
5 4 4 4 3 0 2 1 3 11 5 5 9 5 3 4 3 4 4 5 3 5 5 7 6 6 7 5 6 6 6 6 6 7 7 8 6 6 8 6 7 6 6 5
5 4 5 6 3 1 3 4 5 5 2 2 6 3 1 2 2 3 3 3 4 5 7 7 7 6 7 7 7 6 7 6 6 7 7 6 5 7 7 9 10 10 7 9
5 6 5 3 6 5 4 2 3 2 2 5 6 4 3 2 2 4 3 2 5 7 6 7 8 6 4 7 6 4 7 6 7 7 7 5 6 7 8 9 9 6 8 11
3 4 4 3 4 5 4 4 2 6 5 6 7 5 5 3 5 4 3 5 5 5 7 6 6 6 7 6 5 6 7 7 9 8 6 8 8 8 9 9 7 8 9 10
3 4 2 3 5 3 6 4 6 5 2 5 3 4 5 5 5 4 7 7 7 8 8 7 6 6 7 6 6 8 10 9 7 7 9 8 8 8 9 11 10 10 9 7
2 2 5 3 4 2 2 3 2 4 6 4 5 4 4 3 4 5 6 7 8 8 7 7 6 8 7 6 7 10 10 6 8 8 9 9 9 9 10 11 11 9 7 6
4 1 5 3 4 1 0 2 1 3 5 4 3 4 4 5 6 8 8 8 8 7 7 6 6 7 10 8 10 8 9 9 7 9 10 9 8 10 8 6 8 8 7 7
3 3 5 1 3 4 3 4 5 2 2 1 3 5 6 6 8 8 8 9 8 9 9 8 9 11 12 8 8 10 10 7 9 10 10 9 8 9 9 8 7 8 9 11
1 5 4 5 5 6 5 3 4 6 5 5 3 3 6 7 9 9 9 8 9 10 10 11 11 11 12 12 11 11 9 9 10 11 9 8 8 6 7 8 8 17 22 24
Wind_Direction
205 122 195 198 194 211 79 205 186 119 129 82 107 105 94 91 85 79 69 64 57 53 47 42 36 28 25 25 23 21 18 12 11 8 359 4 10 13 20 16 21 20 6 11
96 225 210 199 209 220 243 275 102 75 97 91 112 95 91 88 88 88 82 67 61 52 44 42 34 29 26 23 22 24 23 20 18 11 2 348 337 10 18 7 17 18 14 15
162 224 195 198 219 199 206 153 183 143 95 76 119 96 114 109 104 89 76 73 64 54 43 40 36 32 27 25 22 23 23 22 24 17 11 12 15 8 8 8 6 9 9 14
201 246 166 176 214 164 219 169 143 151 124 177 223 157 162 139 102 85 76 68 62 54 46 42 38 34 29 24 23 26 24 23 23 22 24 30 30 22 7 357 0 5 9 16
229 181 175 178 197 154 217 104 159 167 159 126 188 87 130 141 126 110 90 77 67 59 51 43 38 38 31 24 22 22 26 23 23 26 29 29 29 18 7 7 10 9 8 13
165 272 140 184 74 155 158 87 40 77 131 238 181 158 183 193 154 125 101 83 73 64 56 48 41 37 35 28 23 26 23 25 20 23 24 26 24 16 14 11 10 6 4 3
102 182 152 110 83 10 112 101 56 7 277 221 200 158 67 96 108 119 111 96 79 68 60 52 41 34 33 29 24 21 21 22 18 18 22 21 18 15 16 13 6 4 1 0
152 225 171 187 176 179 188 159 159 191 192 201 25 135 138 117 108 106 100 94 81 65 56 51 44 37 30 26 25 20 20 18 15 15 12 16 17 16 11 9 3 2 359 354
162 192 354 52 16 100 209 207 191 108 257 102 112 86 127 135 125 117 108 94 78 65 52 45 40 36 30 24 20 17 14 16 13 12 7 10 10 12 7 2 360 357 353 351
182 115 312 102 1 27 155 185 149 25 198 210 141 170 143 169 151 129 115 103 89 72 53 39 33 28 22 18 11 12 11 10 4 4 5 5 356 4 3 358 355 354 347 347
35 104 249 87 18 349 357 187 27 150 180 194 154 163 320 170 147 133 121 107 102 85 65 42 25 23 16 11 7 3 3 360 360 356 354 353 351 349 357 355 347 347 344 344
20 100 96 97 248 38 68 93 22 151 210 24 111 158 50 96 115 118 112 106 107 93 75 42 16 4 2 1 358 351 351 351 348 343 342 343 340 342 346 349 342 338 340 340
243 77 99 44 329 15 66 5 341 110 63 205 139 180 147 109 94 98 106 91 95 103 78 25 0 342 334 337 338 334 337 336 334 337 333 333 334 335 331 337 334 332 333 333
102 74 137 175 121 114 105 37 4 94 102 177 142 148 173 126 119 93 81 95 117 109 66 348 333 315 311 306 313 318 320 321 317 326 327 324 323 321 318 320 323 323 324 325
78 97 86 64 71 78 71 53 26 81 73 121 161 145 176 168 160 183 197 165 128 125 359 306 299 301 303 316 314 310 295 307 298 313 317 306 304 306 310 318 316 313 316 318
37 124 109 58 80 91 79 28 81 71 86 79 104 91 178 212 90 92 164 142 168 264 312 313 287 276 279 276 279 282 281 288 284 296 292 290 295 299 299 301 304 311 314 313
98 130 107 119 125 117 38 325 38 99 52 109 167 182 155 118 129 202 249 256 204 255 273 296 297 297 295 294 289 296 292 287 290 284 289 289 287 290 290 289 296 299 297 301
116 93 85 140 95 171 195 27 17 109 71 62 93 94 117 156 240 252 236 171 224 276 287 298 290 293 281 276 296 288 297 303 301 302 301 304 303 312 315 308 318 304 304 300
46 102 95 128 104 136 315 217 172 176 209 219 140 134 141 301 32 306 215 176 206 242 260 252 261 264 276 287 282 295 305 294 300 294 295 294 295 310 313 319 317 312 312 318
39 69 108 103 122 177 211 200 150 118 332 187 148 169 180 9 66 254 236 268 276 264 253 266 266 263 271 275 278 284 281 285 284 284 276 283 300 304 304 302 300 297 305 308
35 15 100 87 108 294 230 196 119 91 226 151 157 173 165 180 200 221 264 283 244 252 268 260 266 259 263 270 266 278 275 270 271 279 285 294 296 295 291 297 296 302 302 300
131 112 115 74 82 266 168 59 142 193 349 139 149 194 201 228 282 278 284 271 278 280 281 275 271 265 261 262 270 276 277 274 271 276 283 280 281 285 296 298 297 296 291 297
72 134 145 129 187 254 282 148 238 144 143 195 149 218 189 235 254 284 278 275 274 271 273 277 265 279 272 257 255 273 268 265 277 272 271 273 273 279 287 288 287 291 295 289
349 167 92 93 310 127 36 356 147 144 150 177 184 200 183 241 265 270 273 276 283 280 277 267 268 268 276 264 266 256 271 273 266 271 274 273 268 273 271 286 286 281 284 284
203 118 131 40 314 343 290 229 192 168 106 137 250 210 230 245 264 259 273 278 273 283 285 277 275 275 277 271 263 266 268 261 270 273 272 269 266 268 271 263 263 269 265 261
245 168 139 196 189 146 226 220 169 156 212 229 223 258 247 245 265 274 276 278 279 280 280 277 273 271 278 277 270 271 264 261 264 271 272 267 266 263 265 269 272 273 284 286